Location: Del Oro Observatory
(38.3044°N, 104.8119°W)
Time: 12:50:57
(UTC-07:00)

Daily predictions for brighter satellites

Satellite Brightness Start Highest point End
(mag) Time Altitude Azimuth Time Altitude Azimuth Time Altitude Azimuth
NOSS 3-1 (C) 4.3 16:55:09 10° NW 17:02:53 85° WSW 17:11:17 10° SSE
PAYLOAD A 3.8 16:59:46 10° SSE 17:04:29 68° ENE 17:09:21 10° N
IRS-1A Rocket 4.4 17:03:36 10° SSE 17:09:07 83° WSW 17:14:39 10° NNW
IDEFIX/ARIANE 42P 2.7 17:06:09 10° SSE 17:11:10 51° ENE 17:16:12 10° N
Cosmos 2154 Rocket 4.2 17:08:42 10° N 17:14:56 81° W 17:21:11 10° S
USA 32 4.4 17:10:11 10° SSE 17:15:02 41° E 17:19:55 10° NNE
Cosmos 1536 2.8 17:11:58 10° N 17:16:02 71° E 17:20:05 10° SSE
Okean 1 Rocket 3.5 17:12:20 10° NNW 17:16:39 68° W 17:20:57 10° S
Hubble Space Telescope 3.3 17:17:49 10° SW 17:20:38 18° S 17:23:27 10° SSE
Cosmos 1461 3.2 17:17:25 10° NW 17:21:21 68° WSW 17:25:17 10° SSE
COSMO-SKYMED 1 3.7 17:18:18 10° NE 17:21:54 25° E 17:25:28 10° SSE
Cosmos 1544 Rocket 4.2 17:19:49 10° NNE 17:23:53 34° ENE 17:27:56 10° SE
Cosmos 1975 Rocket 3.0 17:20:44 10° S 17:25:03 84° E 17:29:23 10° N
Cosmos 372 Rocket 4.1 17:23:32 10° SSW 17:28:47 83° WNW 17:34:04 10° NNE
SJ-12 3.9 17:25:01 10° SSE 17:29:05 88° E 17:33:13 10° NNW
SMAP 3.0 17:24:28 10° SSE 17:29:06 79° ENE 17:33:47 10° N
Okean 3 4.2 17:24:57 10° SSW 17:29:10 57° W 17:33:24 10° N
AQUARIUS 4.1 17:24:44 10° SSE 17:29:14 80° ENE 17:33:44 10° N
MSX 3.9 17:26:47 10° SSE 17:32:23 56° ENE 17:38:00 10° N
CZ-4 R/B 2.0 17:30:59 10° S 17:35:08 64° W 17:39:18 10° NNW
Cosmos 2263 Rocket 4.2 17:32:06 10° WSW 17:36:33 24° NW 17:41:04 10° N
USA 234 4.3 17:30:59 10° NNE 17:36:55 38° NNW 17:42:50 10° W
Thor Agena Rocket 3.8 17:32:36 10° N 17:37:48 74° WNW 17:43:01 10° SSW
Cosmos 1346 Rocket 4.3 17:35:44 10° SE 17:38:15 17° E 17:38:33 16° E
Cosmos 1536 Rocket 4.1 17:37:29 10° SSE 17:41:34 37° E 17:45:43 10° NNE
Cosmos 1812 3.0 17:39:39 10° SSE 17:43:19 44° E 17:47:01 10° NNE
Cosmos 494 Rocket 4.4 17:42:10 10° N 17:47:03 38° ENE 17:51:55 10° SE
NOSS 3-3 (A) 4.4 17:42:16 10° S 17:47:56 41° ESE 17:52:24 17° NE
NOSS 3-3 (C) 4.5 17:42:23 10° S 17:48:03 40° ESE 17:52:27 17° NE
YAOGAN 1 3.0 17:44:04 10° S 17:48:22 67° W 17:52:41 10° NNW
OTV 4 0.9 17:50:33 10° W 17:53:30 56° S 17:55:03 24° ESE
Cosmos 2251 Rocket 3.6 17:48:57 10° N 17:54:12 52° ENE 17:59:22 10° SE
SL-8 Rocket 4.0 17:49:17 10° N 17:55:28 85° W 18:01:37 10° S
Meteor 1-12 Rocket 4.3 17:50:09 10° N 17:55:48 55° ENE 18:01:33 10° SSE
FALCON 9 R/B 4.1 17:27:13 10° WSW 17:56:01 61° S 18:01:52 19° E
Cosmos 1975 3.3 17:52:32 10° N 17:56:20 36° ENE 18:00:05 10° SSE
ATLAS 2AS CENTAUR R/B 3.0 17:50:21 10° NNW 17:58:20 60° NE 18:05:46 10° SE
Cosmos 1844 Rocket 3.1 17:57:25 10° SSW 18:02:57 64° WNW 18:08:33 10° NNE
SL-27 R/B 2.4 18:00:33 10° NNW 18:04:14 76° ENE 18:07:51 10° SSE
EP 2 4.4 18:02:26 10° SSW 18:04:56 52° SE 18:04:56 52° SE
Cosmos 2366 rocket 4.0 17:58:38 10° N 18:05:02 83° E 18:11:21 10° S
Cosmos 2218 Rocket 4.0 17:59:11 10° N 18:05:31 85° W 18:11:43 10° S
BREEZE-M DEB (TANK) 4.0 18:07:26 10° NW 18:08:43 14° NNW 18:08:45 14° NNW
SKYMED 2 3.5 18:05:45 10° NNE 18:10:06 90° NNW 18:14:27 10° SSW
Cosmos 1844 3.8 18:04:36 10° SSW 18:10:09 76° WNW 18:15:24 12° NNE
ISS -2.1 18:07:24 10° W 18:10:28 35° NNW 18:11:30 27° N
GEOS 3 Rocket 3.5 18:05:43 10° SE 18:10:49 74° NE 18:15:56 10° NNW
Cosmos 2297 4.5 18:06:06 10° SSE 18:10:54 29° ESE 18:11:32 29° E
Cosmos 1455 Rocket 3.1 18:09:24 10° N 18:13:48 83° W 18:18:12 10° S
DMSP B5D1-3 4.4 18:08:48 10° NNE 18:13:58 71° ESE 18:19:05 10° S
SL-8 R/B 3.7 18:10:44 10° SW 18:15:27 65° SE 18:17:03 40° ENE
ATLAS 3B CENTAUR R/B 4.1 17:59:20 10° WSW 18:16:56 44° S 18:22:05 19° ESE
Cosmos 2278 Rocket 2.1 18:22:48 10° SSW 18:28:27 89° WNW 18:31:58 24° NNE
CZ-3B DEB 2.8 18:24:53 10° WSW 18:28:45 55° NNW 18:34:11 22° NE
Cosmos 1484 Rocket 3.7 18:26:13 10° S 18:29:52 46° W 18:33:30 10° NNW
Meteor 1-13 Rocket 4.2 18:24:52 10° S 18:30:21 58° E 18:32:59 31° NNE
Cosmos 1809 Rocket 4.3 18:30:59 10° N 18:37:11 83° E 18:43:18 10° S
Tiangong 1 3.7 18:37:40 10° SSW 18:38:20 14° SSW 18:38:20 14° SSW
Cosmos 1821 Rocket 4.4 18:34:56 10° N 18:45:53 14° SSE 18:46:38 10° SSE
Cosmos 2082 Rocket 3.4 18:49:57 10° N 18:52:44 28° N 18:52:44 28° N
Nadezhda 3 Rocket 4.2 18:52:45 10° SSW 18:58:54 70° W 19:05:09 10° N
Cosmos 1833 Rocket 4.3 18:58:00 10° N 18:59:58 21° N 18:59:58 21° N
BREEZE-M R/B 4.1 18:56:12 10° WSW 19:05:09 53° NW 19:05:51 50° N
BREEZE M DEB (TANK) 4.3 19:31:45 10° NW 19:34:57 48° NNW 19:34:57 48° NNW
